Tracking 31027 objects as of 19-Jul-2025
HD Live streaming from Space Station
objects crossing your sky now

STARLINK-5336

Track STARLINK-5336 now!
10-day predictions
STARLINK-5336 is classified as:


NORAD ID: 57138
Int'l Code: 2023-090AP
Perigee: 565.5 km
Apogee: 567.0 km
Inclination: 43.0 °
Period: 95.8 minutes
Semi major axis: 6937 km
RCS: Unknown
Launch date: June 23, 2023
Source: United States (US)
Launch site: AIR FORCE EASTERN TEST RANGE (AFETR)
Your satellite tracking list
GALASSIA
Track 1 satellite(s)




NASA's NSSDC Master Catalog

Two Line Element Set (TLE):
1 57138U 23090AP  25199.05771670 -.00000138  00000-0  48394-5 0  9993
2 57138  43.0039  96.9842 0001101 266.8245  93.2472 15.02535741115073
Source of the keplerian elements: AFSPC